EW9008 Weather Reports


time (UTC)temp
C
wind
direction
speed
KPH
gust
KPH
rain 1hr
cm
rain 24hr
cm
rain mn
cm
humidity
%
barometer
mb
20260505032057 17 173 0.0 0.0 0.00 0.00 0.00 53 1012.8
20260505031556 17 173 0.0 0.0 0.00 0.00 0.00 53 1012.8
20260505031054 17 173 0.0 0.0 0.00 0.00 0.00 52 1012.8
20260505030555 17 173 0.0 0.0 0.00 0.00 0.00 52 1012.8
20260505030052 17 173 0.0 0.0 0.00 0.00 0.00 51 1012.8
20260505025553 17 173 0.0 0.0 0.00 0.00 0.00 51 1012.8
20260505025054 18 173 0.0 0.0 0.00 0.00 0.00 50 1012.8
20260505024600 18 173 0.0 0.0 0.00 0.00 0.00 50 1012.8
20260505024052 18 173 0.0 0.0 0.00 0.00 0.00 49 1012.7
20260505023552 18 173 0.0 0.0 0.00 0.00 0.00 48 1012.7
20260505023054 18 173 0.0 0.0 0.00 0.00 0.00 48 1012.7
20260505022552 18 173 0.0 0.0 0.00 0.00 0.00 47 1012.6
20260505022052 18 173 0.0 0.0 0.00 0.00 0.00 47 1012.5
20260505021552 19 173 0.0 0.0 0.00 0.00 0.00 46 1012.5
20260505021051 19 173 0.0 0.0 0.00 0.00 0.00 45 1012.5
20260505020551 19 173 0.0 0.0 0.00 0.00 0.00 45 1012.5
20260505020051 20 173 0.0 0.0 0.00 0.00 0.00 44 1012.4
20260505015551 20 173 0.0 0.0 0.00 0.00 0.00 44 1012.4
20260505015051 20 173 0.0 0.0 0.00 0.00 0.00 43 1012.3
20260505014551 20 173 0.0 0.0 0.00 0.00 0.00 43 1012.2
20260505014053 20 173 0.0 0.0 0.00 0.00 0.00 42 1012.1
20260505013550 21 173 0.0 0.0 0.00 0.00 0.00 42 1012.1
20260505013102 21 173 0.0 0.0 0.00 0.00 0.00 42 1012.0
20260505012550 21 173 0.0 0.0 0.00 0.00 0.00 42 1012.0
20260505012050 21 173 0.0 0.0 0.00 0.00 0.00 41 1011.9
20260505011551 21 173 0.0 0.0 0.00 0.00 0.00 40 1011.9
20260505011050 21 173 0.0 0.0 0.00 0.00 0.00 38 1011.9
20260505010549 21 173 0.0 0.0 0.00 0.00 0.00 38 1011.9
20260505010100 22 173 0.0 0.0 0.00 0.00 0.00 37 1011.7
20260505005549 22 173 0.0 0.0 0.00 0.00 0.00 37 1011.7
20260505005049 22 173 0.0 0.0 0.00 0.00 0.00 37 1011.6
20260505004550 22 173 0.0 0.0 0.00 0.00 0.00 37 1011.6
20260505004048 22 173 0.0 0.0 0.00 0.00 0.00 36 1011.6
20260505003551 22 173 0.0 0.0 0.00 0.00 0.00 36 1011.5
20260505003048 22 173 0.0 0.0 0.00 0.00 0.00 36 1011.5
20260505002548 22 173 0.0 0.0 0.00 0.00 0.00 36 1011.4
20260505002048 23 173 0.0 0.0 0.00 0.00 0.00 36 1011.4
20260505001548 23 173 0.0 0.0 0.00 0.00 0.00 35 1011.4
20260505001050 23 173 0.0 0.0 0.00 0.00 0.00 35 1011.4
20260505000547 23 159 0.0 0.0 0.00 0.00 0.00 36 1011.4
20260505000057 23 159 0.0 0.0 0.00 0.00 0.00 35 1011.3
20260504235547 23 159 0.0 0.0 0.00 0.00 0.00 35 1011.3
20260504235047 23 182 0.0 0.0 0.00 0.00 0.00 34 1011.2
20260504234548 23 182 0.0 0.0 0.00 0.00 0.00 33 1011.1
20260504234048 23 188 0.0 0.0 0.00 0.00 0.00 32 1011.0
20260504233546 23 188 0.0 0.0 0.00 0.00 0.00 32 1011.0
20260504233050 24 188 0.0 0.0 0.00 0.00 0.00 31 1010.9
20260504232549 24 188 0.0 0.0 0.00 0.00 0.00 31 1010.9
20260504232046 24 71 0.0 0.0 0.00 0.00 0.00 31 1010.8
20260504231545 24 71 0.0 0.0 0.00 0.00 0.00 32 1010.8
20260504231045 24 71 0.0 0.0 0.00 0.00 0.00 31 1010.8
20260504230549 24 53 0.0 0.0 0.00 0.00 0.00 32 1010.7
20260504230044 25 151 0.0 0.0 0.00 0.00 0.00 32 1010.7
20260504225543 25 88 0.0 0.0 0.00 0.00 0.00 32 1010.8
20260504225043 25 157 0.0 0.0 0.00 0.00 0.00 32 1010.8
20260504224543 25 140 0.0 0.0 0.00 0.00 0.00 31 1010.7
20260504224043 25 161 0.0 0.0 0.00 0.00 0.00 31 1010.8
20260504223543 25 161 0.0 0.0 0.00 0.00 0.00 31 1010.7
20260504223050 25 254 0.0 0.0 0.00 0.00 0.00 30 1010.7
20260504222543 25 254 0.0 0.0 0.00 0.00 0.00 31 1010.8
20260504222042 25 261 0.0 0.0 0.00 0.00 0.00 30 1010.8
20260504221542 25 261 0.0 0.0 0.00 0.00 0.00 30 1010.8
20260504221041 25 192 0.0 0.0 0.00 0.00 0.00 30 1010.8
20260504220541 25 108 0.0 0.0 0.00 0.00 0.00 30 1010.8
20260504220044 25 259 0.0 0.0 0.00 0.00 0.00 29 1010.8
20260504215540 25 96 0.0 0.0 0.00 0.00 0.00 28 1010.8
20260504215040 25 163 0.0 0.0 0.00 0.00 0.00 28 1010.9
20260504214546 25 157 0.0 0.0 0.00 0.00 0.00 29 1010.9
20260504214039 25 236 0.0 0.0 0.00 0.00 0.00 27 1010.9
20260504213539 25 128 0.0 0.0 0.00 0.00 0.00 27 1010.8
20260504213042 25 138 0.0 0.0 0.00 0.00 0.00 28 1010.9
20260504212539 26 126 0.0 0.0 0.00 0.00 0.00 29 1010.9
20260504212039 26 126 0.0 0.0 0.00 0.00 0.00 28 1010.9
20260504211538 26 118 0.0 0.0 0.00 0.00 0.00 29 1011.0
20260504211041 26 259 0.0 0.0 0.00 0.00 0.00 28 1011.0
20260504210540 26 154 0.0 0.0 0.00 0.00 0.00 28 1011.0
20260504210036 26 198 0.0 0.0 0.00 0.00 0.00 27 1011.0
20260504205539 27 117 0.0 0.0 0.00 0.00 0.00 25 1011.0
20260504205035 27 206 0.0 0.0 0.00 0.00 0.00 25 1011.0
20260504204535 27 244 0.0 0.0 0.00 0.00 0.00 26 1011.2
20260504204034 27 244 0.0 0.0 0.00 0.00 0.00 24 1011.2
20260504203534 28 171 0.0 0.0 0.00 0.00 0.00 25 1011.3
20260504203035 28 136 0.0 0.0 0.00 0.00 0.00 25 1011.4
20260504202533 28 146 0.0 0.0 0.00 0.00 0.00 25 1011.4
20260504202033 28 142 0.0 0.0 0.00 0.00 0.00 25 1011.5
20260504201532 28 242 0.0 0.0 0.00 0.00 0.00 25 1011.6
20260504201033 28 249 0.0 0.0 0.00 0.00 0.00 25 1011.6
20260504200530 28 159 0.0 0.0 0.00 0.00 0.00 26 1011.6
20260504200031 28 198 0.0 0.0 0.00 0.00 0.00 27 1011.6
20260504195530 28 248 0.0 0.0 0.00 0.00 0.00 26 1011.6
20260504195029 28 246 0.0 0.0 0.00 0.00 0.00 25 1011.7
20260504194531 28 246 0.0 0.0 0.00 0.00 0.00 26 1011.8
20260504194028 28 201 0.0 0.0 0.00 0.00 0.00 25 1011.9
20260504193528 28 88 0.0 0.0 0.00 0.00 0.00 27 1011.9
20260504193028 28 87 0.0 0.0 0.00 0.00 0.00 27 1012.0
20260504192526 28 252 0.0 0.0 0.00 0.00 0.00 26 1012.0
20260504192029 28 252 0.0 0.0 0.00 0.00 0.00 25 1012.2
20260504191526 28 251 0.0 0.0 0.00 0.00 0.00 26 1012.2
20260504191025 28 257 0.0 0.0 0.00 0.00 0.00 26 1012.3
20260504190527 28 238 0.0 0.0 0.00 0.00 0.00 27 1012.3
20260504190023 28 136 0.0 0.0 0.00 0.00 0.00 27 1012.4
20260504185523 27 188 0.0 0.0 0.00 0.00 0.00 27 1012.4
20260504185021 27 201 0.0 0.0 0.00 0.00 0.00 27 1012.5
20260504184520 27 175 0.0 0.0 0.00 0.00 0.00 27 1012.6
20260504184019 27 145 0.0 0.0 0.00 0.00 0.00 29 1012.7
20260504183519 27 191 0.0 0.0 0.00 0.00 0.00 29 1012.6
20260504183017 27 192 0.0 0.0 0.00 0.00 0.00 29 1012.7
20260504182516 27 235 0.0 0.0 0.00 0.00 0.00 29 1012.8
20260504182015 26 246 0.0 0.0 0.00 0.00 0.00 29 1012.9
20260504181523 26 182 0.0 0.0 0.00 0.00 0.00 30 1012.9
20260504181015 26 181 0.0 0.0 0.00 0.00 0.00 28 1013.0
20260504180513 26 164 0.0 0.0 0.00 0.00 0.00 29 1013.2
20260504180011 26 223 0.0 0.0 0.00 0.00 0.00 31 1013.2
20260504175510 26 170 0.0 0.0 0.00 0.00 0.00 31 1013.3
20260504175009 26 150 0.0 0.0 0.00 0.00 0.00 33 1013.3
20260504174507 25 265 0.0 0.0 0.00 0.00 0.00 33 1013.3
20260504174005 25 265 0.0 0.0 0.00 0.00 0.00 30 1013.3
20260504173504 25 146 0.0 0.0 0.00 0.00 0.00 31 1013.3
20260504173003 25 182 0.0 0.0 0.00 0.00 0.00 33 1013.4
20260504172501 25 243 0.0 0.0 0.00 0.00 0.00 32 1013.5
20260504172002 24 236 0.0 0.0 0.00 0.00 0.00 32 1013.5
20260504171612 24 229 0.0 0.0 0.00 0.00 0.00 34 1013.4
20260504171058 24 229 0.0 0.0 0.00 0.00 0.00 35 1013.4
20260504170559 24 222 0.0 0.0 0.00 0.00 0.00 33 1013.5
20260504151035 20 244 0.0 0.0 0.00 0.00 0.00 47 1014.9
20260504150534 20 250 0.0 0.0 0.00 0.00 0.00 51 1014.9
20260504141019 15 189 0.0 0.0 0.00 0.00 0.00 71 1015.1
20260504140516 15 189 0.0 0.0 0.00 0.00 0.00 71 1015.1
20260504130506 10 190 0.0 0.0 0.00 0.00 0.00 88 1015.2
20260504120121 7 194 0.0 0.0 0.00 0.00 0.00 86 1014.6
20260504110556 7 194 0.0 0.0 0.00 0.00 0.00 83 1014.9
20260504110105 7 194 0.0 0.0 0.00 0.00 0.00 83 1014.8
20260504100549 8 194 0.0 0.0 0.00 0.00 0.00 82 1014.7
20260504081542 8 194 0.0 0.0 0.00 0.00 0.00 79 1014.2
20260504081041 8 194 0.0 0.0 0.00 0.00 0.00 79 1014.2
20260504080541 8 194 0.0 0.0 0.00 0.00 0.00 79 1014.2
20260504050527 11 194 0.0 0.0 0.00 0.00 0.00 73 1014.6
20260504050020 11 194 0.0 0.0 0.00 0.00 0.00 73 1014.7
20260504045519 11 194 0.0 0.0 0.00 0.00 0.00 73 1014.8
20260504045019 11 194 0.0 0.0 0.00 0.00 0.00 72 1014.8
20260504044519 11 194 0.0 0.0 0.00 0.00 0.00 72 1014.8
20260504044019 11 194 0.0 0.0 0.00 0.00 0.00 72 1014.9
20260504043517 11 194 0.0 0.0 0.00 0.00 0.00 72 1014.9
20260504043016 11 194 0.0 0.0 0.00 0.00 0.00 71 1014.9
20260504042517 11 194 0.0 0.0 0.00 0.00 0.00 71 1015.0
20260504042014 11 194 0.0 0.0 0.00 0.00 0.00 70 1014.9
20260504041514 11 194 0.0 0.0 0.00 0.00 0.00 70 1015.0
20260504041013 11 194 0.0 0.0 0.00 0.00 0.00 70 1015.0
20260504040513 11 194 0.0 0.0 0.00 0.00 0.00 69 1015.1
20260504040011 11 194 0.0 0.0 0.00 0.00 0.00 69 1015.1
20260504035513 12 194 0.0 0.0 0.00 0.00 0.00 69 1015.1
20260504035011 12 194 0.0 0.0 0.00 0.00 0.00 69 1015.1
20260504034519 12 194 0.0 0.0 0.00 0.00 0.00 68 1015.0
20260504034010 12 194 0.0 0.0 0.00 0.00 0.00 68 1015.1
20260504033511 12 194 0.0 0.0 0.00 0.00 0.00 68 1015.1
20260504033020 12 194 0.0 0.0 0.00 0.00 0.00 68 1015.2
20260504032510 12 194 0.0 0.0 0.00 0.00 0.00 67 1015.1